Home   Weather   Yazd   Past weeks

Flag for Iran Past Weather in Yazd, Iran — Yesterday and Last 2 Weeks

Now
100 °F

Passing clouds.


Feels Like: 95 °F
Forecast: 76 / 100 °F
Wind: 12 mph from North

Location: Yazd Airport

Current Time: Aug 18, 2017 at 3:29:21 pm

Latest Report: Aug 18, 2017 at 3:00 pm


Visibility: N/A

Pressure: 29.95 "Hg (26.20 "Hg at 1218m altitude)

Humidity: 8%

Dew Point: 28 °F

Location of YazdLocation

Past Weather in Yazd — Graph

°F

Yazd Temperature Yesterday

Maximum temperature yesterday: 102 °F (at 3:00 pm)
Minimum temperature yesterday: 81 °F (at 4:30 am)
Average temperature yesterday: 93 °F

High & Low Weather Summary for the Past Weeks

 TemperatureHumidityPressure
High104 °F (Aug 15, 2:30 pm)32% (Aug 11, 7:30 am)30.07 "Hg (Aug 11, 7:30 am)
Low72 °F (Aug 8, 5:30 am)4% (Aug 5, 3:30 pm)29.83 "Hg (Aug 15, 4:00 pm)
Average90 °F12%29.95 "Hg
* Reported Aug 3 1:30 pm — Aug 18 2:00 pm, Yazd. Weather by CustomWeather, © 2017

Note: Actual official high and low records may vary slightly from our data, if they occured in-between our weather recording intervals... More about our weather records

Advertising

Yazd Weather History for the Previous 24 Hours

Scroll right to see more
 ConditionsComfort  
Time TempWeatherWind HumidityBarometerVisibility
2:00 pm
Fri, Aug 18
99 °FPassing clouds.7 mph8%29.98 "HgN/A
1:30 pm99 °FPassing clouds.9 mph8%29.98 "HgN/A
1:00 pm99 °FSunny.7 mph8%30.01 "Hg10 mi
12:30 pm95 °FSunny.7 mph10%30.01 "Hg10 mi
12:00 pm95 °FSunny.5 mph10%30.01 "Hg10 mi
11:30 am91 °FSunny.7 mph12%30.04 "Hg10 mi
11:00 am90 °FSunny.7 mph13%30.04 "Hg10 mi
10:30 am88 °FSunny.9 mph13%30.07 "Hg10 mi
10:00 am86 °FSunny.9 mph13%30.04 "Hg10 mi
9:30 am86 °FSunny.9 mph14%30.04 "Hg10 mi
8:30 am82 °FSunny.5 mph15%30.04 "Hg10 mi
7:30 am79 °FSunny.5 mph17%30.04 "Hg10 mi
7:00 am77 °FSunny.5 mph17%30.01 "Hg10 mi
6:30 am77 °FClear.5 mph17%30.01 "Hg10 mi
6:00 am77 °FClear.5 mph18%29.98 "Hg10 mi
5:30 am77 °FClear.2 mph18%29.98 "Hg10 mi
4:30 am79 °FClear.5 mph16%29.98 "Hg10 mi
3:30 am82 °FClear.5 mph14%29.98 "Hg10 mi
2:30 am84 °FClear.5 mph13%29.98 "Hg10 mi
1:30 am86 °FClear.12 mph12%29.98 "Hg10 mi
12:30 am86 °FClear.9 mph11%29.98 "Hg10 mi
11:30 pm
Thu, Aug 17
86 °FClear.9 mph10%29.95 "Hg10 mi
11:00 pm88 °FClear.7 mph9%29.95 "Hg10 mi
10:30 pm90 °FClear.5 mph9%29.95 "Hg10 mi
10:00 pm91 °FPassing clouds.2 mph8%29.95 "HgN/A
9:30 pm95 °FPassing clouds.9 mph7%29.92 "HgN/A
9:00 pm95 °FPassing clouds.7 mph7%29.92 "HgN/A
8:30 pm95 °FPassing clouds.9 mph7%29.89 "HgN/A
8:00 pm97 °FPassing clouds.9 mph7%29.89 "HgN/A
7:30 pm99 °FPassing clouds.9 mph6%29.89 "HgN/A
7:00 pm100 °FPassing clouds.9 mph6%29.89 "HgN/A
6:30 pm102 °FPassing clouds.9 mph5%29.86 "HgN/A
6:00 pm102 °FPassing clouds.7 mph5%29.89 "HgN/A
5:30 pm102 °FPassing clouds.7 mph5%29.89 "HgN/A
5:00 pm102 °FPassing clouds.5 mph5%29.89 "HgN/A
4:30 pm102 °FScattered clouds.5 mph5%29.89 "HgN/A
4:00 pm102 °FScattered clouds.7 mph5%29.89 "HgN/A
3:30 pm102 °FPassing clouds.2 mph5%29.89 "HgN/A
3:00 pm102 °FPassing clouds.2 mph5%29.92 "HgN/A
Weather by CustomWeather, © 2017

See weather overviewHow to use our weather pages